When you browse on this site, cookies collect data to enhance your experience and personalize the content and advertising you see.
Visit our Privacy Policy to learn more. By continuing to use the site, you agree to this use of cookies and data.
  • In Portugal
  • List of Countries
  • For 7 days
  • Water Temperature
  • Satellite Maps
  • Weather Map
  • Weather Widgets
  • user-avatar
    Login

    Hourly Weather Niedzwiedzica

    Today, 21 March, Thursday

    Time Temperature Precipitation Wind Pressure Humidity
    00:00 +2°C° 0 mm 2 mps 729 mmHg 68%
    01:00 +2°C° 0 mm 2 mps 729 mmHg 67%
    02:00 +2°C° 0 mm 2 mps 729 mmHg 68%
    03:00 +2°C° 0 mm 2 mps 729 mmHg 69%
    04:00 +2°C° 0 mm 2 mps 728 mmHg 69%
    05:00 +2°C° 0 mm 2 mps 729 mmHg 70%
    06:00 +2°C° 0 mm 2 mps 729 mmHg 70%
    07:00 +3°C° 0 mm 2 mps 729 mmHg 70%
    08:00 +5°C° 0 mm 2 mps 729 mmHg 68%
    09:00 +7°C° 0 mm 2 mps 730 mmHg 66%
    10:00 +8°C° 0 mm 2 mps 730 mmHg 64%
    11:00 +9°C° 0 mm 2 mps 730 mmHg 63%
    12:00 +10°C° 0 mm 2 mps 730 mmHg 61%
    13:00 +12°C° 0 mm 2 mps 730 mmHg 60%
    14:00 +12°C° 0 mm 2 mps 729 mmHg 61%
    15:00 +13°C° 0 mm 2 mps 729 mmHg 61%
    16:00 +13°C° 0 mm 2 mps 729 mmHg 61%
    17:00 +10°C° 0 mm 2 mps 728 mmHg 68%
    18:00 +10°C° 0 mm 1 mps 728 mmHg 74%
    19:00 +9°C° 0 mm 1 mps 728 mmHg 80%
    20:00 +8°C° 0 mm 1 mps 728 mmHg 82%
    21:00 +8°C° 0 mm 1 mps 728 mmHg 84%
    22:00 +7°C° 0 mm 1 mps 728 mmHg 86%
    23:00 +7°C° 0 mm 1 mps 728 mmHg 87%

    Tomorrow, 22 March, Friday

    Time Temperature Precipitation Wind Pressure Humidity
    00:00 +7°C° 0 mm 1 mps 728 mmHg 87%
    01:00 +6°C° 0 mm 1 mps 728 mmHg 88%
    02:00 +6°C° 0 mm 1 mps 728 mmHg 88%
    03:00 +6°C° 0 mm 1 mps 728 mmHg 88%
    04:00 +6°C° 0 mm 1 mps 728 mmHg 89%
    05:00 +6°C° 0 mm 1 mps 728 mmHg 88%
    06:00 +7°C° 0 mm 1 mps 728 mmHg 88%
    07:00 +7°C° 0 mm 1 mps 728 mmHg 87%
    08:00 +9°C° 0 mm 1 mps 729 mmHg 82%
    09:00 +11°C° 0 mm 1 mps 729 mmHg 76%
    10:00 +12°C° 0 mm 1 mps 729 mmHg 70%
    11:00 +13°C° 0 mm 1 mps 729 mmHg 69%
    12:00 +14°C° 0 mm 2 mps 729 mmHg 68%
    13:00 +14°C° 0 mm 2 mps 729 mmHg 66%
    14:00 +14°C° 0 mm 2 mps 728 mmHg 67%
    15:00 +14°C° 0 mm 2 mps 728 mmHg 68%
    16:00 +14°C° 0 mm 2 mps 727 mmHg 69%
    17:00 +12°C° 0 mm 2 mps 727 mmHg 75%
    18:00 +11°C° 0 mm 1 mps 727 mmHg 81%
    19:00 +9°C° 0 mm 1 mps 727 mmHg 87%
    20:00 +9°C° 0 mm 1 mps 727 mmHg 89%
    21:00 +9°C° 0 mm 1 mps 727 mmHg 90%
    22:00 +8°C° 0 mm 1 mps 727 mmHg 92%
    23:00 +8°C° 0 mm 1 mps 726 mmHg 92%

    Day after tomorrow, 23 March, Saturday

    Time Temperature Precipitation Wind Pressure Humidity
    00:00 +8°C° 0 mm 1 mps 726 mmHg 92%
    01:00 +7°C° 0 mm 1 mps 726 mmHg 92%
    02:00 +6°C° 0 mm 2 mps 725 mmHg 92%
    03:00 +6°C° 0 mm 2 mps 725 mmHg 91%
    04:00 +6°C° 0 mm 2 mps 725 mmHg 90%
    05:00 +6°C° 0 mm 2 mps 725 mmHg 89%
    06:00 +7°C° 0 mm 2 mps 725 mmHg 88%
    07:00 +7°C° 0 mm 2 mps 725 mmHg 87%
    08:00 +9°C° 0 mm 2 mps 725 mmHg 78%
    09:00 +12°C° 0 mm 2 mps 725 mmHg 69%
    10:00 +15°C° 0 mm 2 mps 725 mmHg 60%
    11:00 +16°C° 0 mm 2 mps 725 mmHg 56%
    12:00 +16°C° 0 mm 2 mps 725 mmHg 52%
    13:00 +17°C° 0 mm 2 mps 724 mmHg 48%
    14:00 +17°C° 0 mm 2 mps 724 mmHg 48%
    15:00 +17°C° 0 mm 2 mps 724 mmHg 49%
    16:00 +17°C° 0 mm 2 mps 723 mmHg 49%
    17:00 +16°C° 0 mm 2 mps 723 mmHg 55%
    18:00 +14°C° 0 mm 2 mps 723 mmHg 62%
    19:00 +13°C° 0 mm 2 mps 723 mmHg 69%
    20:00 +12°C° 0 mm 2 mps 724 mmHg 73%
    21:00 +10°C° 0 mm 2 mps 724 mmHg 77%
    22:00 +10°C° 0 mm 3 mps 724 mmHg 82%
    23:00 +9°C° 0.1 mm 3 mps 724 mmHg 84%

    24 March, Sunday

    Time Temperature Precipitation Wind Pressure Humidity
    00:00 +7°C° 0.1 mm 4 mps 724 mmHg 87%
    01:00 +7°C° 0.1 mm 4 mps 724 mmHg 90%
    02:00 +6°C° 0 mm 4 mps 724 mmHg 87%
    03:00 +5°C° 0 mm 4 mps 724 mmHg 84%
    04:00 +4°C° 0 mm 3 mps 724 mmHg 81%
    05:00 +3°C° 0 mm 3 mps 724 mmHg 78%
    06:00 +3°C° 0 mm 3 mps 725 mmHg 74%
    07:00 +4°C° 0 mm 2 mps 725 mmHg 70%
    08:00 +4°C° 0 mm 2 mps 725 mmHg 66%
    09:00 +5°C° 0 mm 2 mps 725 mmHg 61%
    10:00 +5°C° 0 mm 2 mps 725 mmHg 57%
    11:00 +6°C° 0 mm 2 mps 725 mmHg 54%
    12:00 +7°C° 0 mm 2 mps 724 mmHg 51%
    13:00 +8°C° 0 mm 2 mps 724 mmHg 49%
    14:00 +8°C° 0 mm 3 mps 724 mmHg 48%
    15:00 +8°C° 0 mm 3 mps 724 mmHg 47%
    16:00 +8°C° 0 mm 3 mps 723 mmHg 47%
    17:00 +7°C° 0 mm 3 mps 723 mmHg 50%
    18:00 +6°C° 0 mm 2 mps 723 mmHg 53%
    19:00 +5°C° 0 mm 2 mps 723 mmHg 56%
    20:00 +4°C° 0 mm 2 mps 723 mmHg 59%
    21:00 +3°C° 0 mm 2 mps 723 mmHg 63%
    22:00 +3°C° 0 mm 1 mps 723 mmHg 66%
    23:00 +3°C° 0 mm 1 mps 723 mmHg 68%

    25 March, Monday

    Time Temperature Precipitation Wind Pressure Humidity
    00:00 +2°C° 0 mm 1 mps 723 mmHg 69%
    01:00 +2°C° 0 mm 1 mps 723 mmHg 71%
    02:00 +2°C° 0 mm 1 mps 723 mmHg 72%
    03:00 +1°C° 0 mm 1 mps 723 mmHg 72%
    04:00 -1°C° 0 mm 2 mps 723 mmHg 73%
    05:00 +1°C° 0 mm 2 mps 723 mmHg 71%
    06:00 +1°C° 0 mm 2 mps 723 mmHg 70%
    07:00 0°C° 0 mm 3 mps 723 mmHg 68%
    08:00 +1°C° 0 mm 4 mps 723 mmHg 62%
    09:00 +2°C° 0 mm 5 mps 723 mmHg 55%
    10:00 +3°C° 0 mm 6 mps 723 mmHg 48%
    11:00 +4°C° 0 mm 6 mps 723 mmHg 51%
    12:00 +4°C° 0 mm 7 mps 722 mmHg 55%
    13:00 +4°C° 0 mm 8 mps 722 mmHg 58%
    14:00 +4°C° 0.1 mm 7 mps 721 mmHg 58%
    15:00 +4°C° 0.1 mm 7 mps 721 mmHg 59%
    16:00 +3°C° 0.1 mm 7 mps 721 mmHg 60%
    17:00 +3°C° 0.1 mm 6 mps 720 mmHg 65%
    18:00 +2°C° 0.1 mm 6 mps 720 mmHg 70%
    19:00 +2°C° 0.1 mm 5 mps 720 mmHg 74%
    20:00 +1°C° 0.1 mm 5 mps 720 mmHg 75%
    21:00 +1°C° 0.1 mm 5 mps 720 mmHg 75%
    22:00 0°C° 0.1 mm 5 mps 720 mmHg 75%
    23:00 -1°C° 0.2 mm 6 mps 720 mmHg 76%

    26 March, Tuesday

    Time Temperature Precipitation Wind Pressure Humidity
    00:00 -1°C° 0.2 mm 6 mps 719 mmHg 77%
    01:00 -1°C° 0.2 mm 6 mps 719 mmHg 78%
    02:00 -1°C° 0 mm 6 mps 719 mmHg 79%
    03:00 -2°C° 0 mm 6 mps 719 mmHg 79%
    04:00 -2°C° 0 mm 5 mps 718 mmHg 79%
    05:00 -3°C° 0 mm 6 mps 718 mmHg 78%
    06:00 -3°C° 0 mm 6 mps 719 mmHg 76%
    07:00 -3°C° 0 mm 7 mps 719 mmHg 75%
    08:00 -2°C° 0.1 mm 8 mps 719 mmHg 70%
    09:00 -2°C° 0.1 mm 8 mps 719 mmHg 65%
    10:00 -1°C° 0.1 mm 9 mps 720 mmHg 60%
    11:00 0°C° 0.1 mm 9 mps 720 mmHg 54%
    12:00 +1°C° 0.1 mm 8 mps 720 mmHg 48%
    13:00 +1°C° 0.1 mm 8 mps 721 mmHg 43%
    14:00 +1°C° 0 mm 8 mps 721 mmHg 43%
    15:00 +1°C° 0 mm 8 mps 721 mmHg 43%
    16:00 +1°C° 0 mm 8 mps 721 mmHg 43%
    17:00 +1°C° 0 mm 6 mps 721 mmHg 50%
    18:00 0°C° 0 mm 5 mps 722 mmHg 57%
    19:00 -1°C° 0 mm 4 mps 722 mmHg 64%
    20:00 -2°C° 0 mm 4 mps 723 mmHg 66%
    21:00 -1°C° 0 mm 3 mps 723 mmHg 68%
    22:00 -2°C° 0 mm 3 mps 724 mmHg 71%
    23:00 -2°C° 0 mm 3 mps 724 mmHg 73%
    Show more